Ely, NV

1:28 PM PST on December 04, 2016 (GMT -0800)
Ely

Weather History for KELY - April, 2013

Change the Weather History Date:

Thursday, April 4, 2013

  Actual Average Record
Temperature  
Mean Temperature 50 °F 40 °F  
Max Temperature 66 °F 55 °F 76 °F (1959)
Min Temperature 33 °F 25 °F 8 °F (1955)
Degree Days  
Heating Degree Days 15 25  
Month to date heating degree days 79 102  
Since 1 July heating degree days 6059 6329  
Cooling Degree Days 0 0  
Month to date cooling degree days 0 0  
Year to date cooling degree days 0 0  
Moisture  
Dew Point 25 °F    
Average Humidity 46    
Maximum Humidity 69    
Minimum Humidity 22    
Precipitation  
Precipitation T in 0.03 in 0.25 in (1967)
Month to date precipitation 0.21 0.12  
Year to date precipitation 1.91 2.50  
Snow  
Snow 0.00 in 0.20 in 2.50 in (2003)
Month to date snowfall T 0.9  
Since 1 July snowfall 58.5 44.1  
Snow Depth 0.00 in    
Sea Level Pressure  
Sea Level Pressure 29.91 in    
Wind  
Wind Speed 14 mph (South)    
Max Wind Speed 23 mph    
Max Gust Speed 31 mph    
Visibility 10 miles    
Events      
T = Trace of Precipitation, MM = Missing Value Source: NWS Daily Summary

Daily Weather History Graph

Daily Weather History Graph

Search for Another Location

Airport or City:

Trip Planner

Search our weather history database for the weather conditions in past years. The results will help you decide how hot, cold, wet, or windy it might be!

Date:

Astronomy

Apr. 04, 2013 Rise Set
Actual Time 6:18 AM PDT 7:06 PM PDT
Civil Twilight 5:51 AM PDT 7:33 PM PDT
Nautical Twilight 5:19 AM PDT 8:05 PM PDT
Astronomical Twilight 4:46 AM PDT 8:39 PM PDT
Moon 2:46 AM PDT 1:31 PM PDT
Length of Visible Light 13h 42m
Length of Day
12h 47m
Waning Crescent, 32% of the Moon is Illuminated
Apr 4
Waning Crescent
Apr 10
New
Apr 18
First Quarter
Apr 25
Full
May 2
Last Quarter

Hourly Weather History & Observations

Time (PDT) Temp. Windchill Dew Point Humidity Pressure Visibility Wind Dir Wind Speed Gust Speed Precip Events Conditions
12:53 AM 35.1 °F 32.2 °F 24.1 °F 64% 30.04 in 10.0 mi Variable 3.5 mph - N/A   Clear
1:53 AM 34.0 °F 25.5 °F 24.1 °F 67% 30.03 in 10.0 mi South 11.5 mph - N/A   Clear
2:53 AM 33.1 °F 24.9 °F 24.1 °F 70% 30.02 in 10.0 mi South 10.4 mph - N/A   Clear
3:53 AM 37.0 °F 31.6 °F 25.0 °F 62% 30.00 in 10.0 mi South 6.9 mph - N/A   Clear
4:53 AM 33.1 °F 23.9 °F 25.0 °F 72% 30.00 in 10.0 mi South 12.7 mph - N/A   Clear
5:53 AM 35.1 °F 26.4 °F 25.0 °F 67% 30.01 in 10.0 mi South 12.7 mph - N/A   Clear
6:53 AM 37.9 °F 30.0 °F 26.1 °F 62% 30.01 in 10.0 mi South 12.7 mph - N/A   Clear
7:53 AM 46.0 °F 39.6 °F 26.1 °F 46% 30.01 in 10.0 mi SSW 15.0 mph - N/A   Clear
8:53 AM 52.0 °F - 28.0 °F 40% 29.99 in 10.0 mi SSW 8.1 mph - N/A   Clear
9:53 AM 57.0 °F - 25.0 °F 29% 29.98 in 10.0 mi SSE 19.6 mph - N/A   Clear
10:53 AM 61.0 °F - 25.0 °F 25% 29.96 in 10.0 mi SSE 20.7 mph 26.5 mph N/A   Clear
11:53 AM 62.1 °F - 25.0 °F 24% 29.96 in 10.0 mi South 17.3 mph 25.3 mph N/A   Clear
12:53 PM 61.0 °F - 24.1 °F 24% 29.95 in 10.0 mi South 16.1 mph 23.0 mph N/A   Clear
1:53 PM 61.0 °F - 24.1 °F 24% 29.91 in 10.0 mi South 19.6 mph 24.2 mph N/A   Partly Cloudy
2:53 PM 63.0 °F - 25.0 °F 24% 29.89 in 10.0 mi SSW 15.0 mph 20.7 mph N/A   Clear
3:53 PM 66.0 °F - 26.1 °F 22% 29.84 in 10.0 mi South 15.0 mph 31.1 mph N/A   Scattered Clouds
4:53 PM 63.0 °F - 25.0 °F 24% 29.85 in 10.0 mi South 18.4 mph 25.3 mph N/A   Scattered Clouds
5:53 PM 61.0 °F - 25.0 °F 25% 29.84 in 10.0 mi South 12.7 mph 24.2 mph N/A   Scattered Clouds
6:53 PM 57.9 °F - 25.0 °F 28% 29.83 in 10.0 mi South 15.0 mph - N/A   Mostly Cloudy
7:53 PM 54.0 °F - 26.1 °F 34% 29.81 in 10.0 mi SSE 10.4 mph - N/A   Overcast
8:53 PM 53.1 °F - 27.0 °F 37% 29.80 in 10.0 mi SSE 15.0 mph - N/A   Overcast
9:53 PM 52.0 °F - 26.1 °F 37% 29.78 in 10.0 mi South 15.0 mph - N/A   Overcast
10:53 PM 50.0 °F - 26.1 °F 39% 29.76 in 10.0 mi South 15.0 mph - N/A   Partly Cloudy
11:53 PM 50.0 °F - 27.0 °F 41% 29.77 in 10.0 mi South 13.8 mph - N/A   Overcast